Location: Altleiningen
(49.5078°N, 8.0741°E)
Time: 04:20:50
(UTC+00:00)

Helios 1B - Pass Details

Date: 14 June 2025
Orbit: 607 x 610 km, 98.2° (Epoch: 12 July)

Event Time Altitude Azimuth Distance (km) Brightness Sun altitude
Rises 22:08:36 0° 13° (NNE) 2,884 9.0 -15.1°
Reaches altitude 10° 22:10:47 10° 14° (NNE) 1,974 8.0 -15.2°
Maximum altitude 22:15:05 87° 285° (WNW) 617 4.5 -15.4°
Enters shadow 22:17:48 22° 197° (SSW) 1,334 5.8 -15.5°
